Time,TemperatureF,DewpointF,PressureIn,WindDirection,WindDirectionDegrees,WindSpeedMPH,WindSpeedGustMPH,Humidity,HourlyPrecipIn,Conditions,Clouds,dailyrainin,SoftwareType,DateUTC
2013-06-06 00:02:00,59.0,50.0,-100.00,WNW,295,3.0,6.0,73,0.00,,,-99.99,,2013-06-06 05:02:00,
2013-06-06 00:12:00,59.0,51.0,-100.00,WNW,290,5.0,7.0,75,0.00,,,-99.99,,2013-06-06 05:12:00,
2013-06-06 00:22:00,59.0,51.0,-100.00,WNW,295,6.0,7.0,76,0.00,,,-99.99,,2013-06-06 05:22:00,
2013-06-06 00:32:00,59.0,51.0,-100.00,WNW,300,6.0,7.0,76,0.00,,,-99.99,,2013-06-06 05:32:00,
2013-06-06 00:42:00,59.0,51.0,-100.00,WNW,300,6.0,7.0,76,0.00,,,-99.99,,2013-06-06 05:42:00,
2013-06-06 00:52:00,58.0,51.0,-100.00,WNW,290,6.0,7.0,76,0.00,,,-99.99,,2013-06-06 05:52:00,
2013-06-06 01:02:00,58.0,51.0,-100.00,WNW,290,6.0,7.0,76,0.00,,,-99.99,,2013-06-06 06:02:00,
2013-06-06 01:12:00,58.0,51.0,-100.00,WNW,300,6.0,8.0,76,0.00,,,-99.99,,2013-06-06 06:12:00,
2013-06-06 01:22:00,58.0,51.0,-100.00,WNW,290,8.0,11.0,77,0.00,,,-99.99,,2013-06-06 06:22:00,
2013-06-06 01:32:00,58.0,52.0,-100.00,WNW,295,6.0,9.0,78,0.00,,,-99.99,,2013-06-06 06:32:00,
2013-06-06 01:42:00,58.0,52.0,-100.00,WNW,295,6.0,9.0,78,0.00,,,-99.99,,2013-06-06 06:42:00,
2013-06-06 01:52:00,58.0,51.0,-100.00,NW,315,6.0,9.0,79,0.00,,,-99.99,,2013-06-06 06:52:00,
2013-06-06 02:02:00,58.0,51.0,-100.00,NW,315,6.0,9.0,79,0.00,,,-99.99,,2013-06-06 07:02:00,
2013-06-06 02:12:00,58.0,51.0,-100.00,NW,320,4.0,9.0,80,0.00,,,-99.99,,2013-06-06 07:12:00,
2013-06-06 02:22:00,57.0,51.0,-100.00,NW,315,5.0,8.0,81,0.00,,,-99.99,,2013-06-06 07:22:00,
2013-06-06 02:32:00,56.0,51.0,-100.00,NW,325,4.0,7.0,83,0.00,,,-99.99,,2013-06-06 07:32:00,
2013-06-06 02:42:00,56.0,51.0,-100.00,NW,325,4.0,7.0,83,0.00,,,-99.99,,2013-06-06 07:42:00,
2013-06-06 02:52:00,55.0,51.0,-100.00,NW,320,5.0,7.0,85,0.00,,,-99.99,,2013-06-06 07:52:00,
2013-06-06 03:02:00,55.0,51.0,-100.00,NW,320,5.0,7.0,85,0.00,,,-99.99,,2013-06-06 08:02:00,
2013-06-06 03:12:00,54.0,50.0,-100.00,NW,320,6.0,7.0,85,0.00,,,-99.99,,2013-06-06 08:12:00,
2013-06-06 03:22:00,54.0,50.0,-100.00,NW,315,6.0,7.0,86,0.00,,,-99.99,,2013-06-06 08:22:00,
2013-06-06 03:32:00,54.0,50.0,-100.00,NNW,330,4.0,7.0,86,0.00,,,-99.99,,2013-06-06 08:32:00,
2013-06-06 03:42:00,54.0,50.0,-100.00,NW,325,4.0,7.0,87,0.00,,,-99.99,,2013-06-06 08:42:00,
2013-06-06 03:52:00,53.0,49.0,-100.00,NW,325,6.0,7.0,87,0.00,,,-99.99,,2013-06-06 08:52:00,
2013-06-06 04:02:00,53.0,49.0,-100.00,NW,325,6.0,7.0,87,0.00,,,-99.99,,2013-06-06 09:02:00,
2013-06-06 04:12:00,53.0,49.0,-100.00,NNW,335,4.0,7.0,87,0.00,,,-99.99,,2013-06-06 09:12:00,
2013-06-06 04:22:00,53.0,49.0,-100.00,NNW,335,5.0,7.0,87,0.00,,,-99.99,,2013-06-06 09:22:00,
2013-06-06 04:33:00,52.0,49.0,-100.00,NNW,335,5.0,7.0,87,0.00,,,-99.99,,2013-06-06 09:33:00,
2013-06-06 04:43:00,52.0,49.0,-100.00,NNW,335,5.0,7.0,87,0.00,,,-99.99,,2013-06-06 09:43:00,
2013-06-06 04:53:00,52.0,48.0,-100.00,NNW,330,4.0,7.0,88,0.00,,,-99.99,,2013-06-06 09:53:00,
2013-06-06 05:03:00,52.0,48.0,-100.00,NNW,330,4.0,7.0,88,0.00,,,-99.99,,2013-06-06 10:03:00,
2013-06-06 05:12:00,51.0,48.0,-100.00,NNW,335,4.0,7.0,88,0.00,,,-99.99,,2013-06-06 10:12:00,
2013-06-06 05:22:00,51.0,48.0,-100.00,NNW,340,3.0,6.0,89,0.00,,,-99.99,,2013-06-06 10:22:00,
2013-06-06 05:33:00,51.0,48.0,-100.00,NNW,340,3.0,4.0,89,0.00,,,-99.99,,2013-06-06 10:33:00,
2013-06-06 05:42:00,51.0,48.0,-100.00,NNW,340,3.0,4.0,89,0.00,,,-99.99,,2013-06-06 10:42:00,
2013-06-06 05:52:00,51.0,48.0,-100.00,NNW,345,2.0,4.0,90,0.00,,,-99.99,,2013-06-06 10:52:00,
2013-06-06 06:02:00,51.0,48.0,-100.00,NNW,345,2.0,4.0,90,0.00,,,-99.99,,2013-06-06 11:02:00,
2013-06-06 06:12:00,51.0,49.0,-100.00,North,355,2.0,4.0,90,0.00,,,-99.99,,2013-06-06 11:12:00,
2013-06-06 06:22:00,52.0,49.0,-100.00,North,350,1.0,2.0,91,0.00,,,-99.99,,2013-06-06 11:22:00,
2013-06-06 06:32:00,52.0,50.0,-100.00,North,0,2.0,6.0,91,0.00,,,-99.99,,2013-06-06 11:32:00,
2013-06-06 06:42:00,52.0,50.0,-100.00,North,0,2.0,6.0,91,0.00,,,-99.99,,2013-06-06 11:42:00,
2013-06-06 06:52:00,53.0,50.0,-100.00,NE,35,5.0,8.0,91,0.00,,,-99.99,,2013-06-06 11:52:00,
2013-06-06 07:02:00,53.0,50.0,-100.00,NE,35,5.0,8.0,91,0.00,,,-99.99,,2013-06-06 12:02:00,
2013-06-06 07:12:00,53.0,50.0,-100.00,North,0,3.0,8.0,91,0.00,,,-99.99,,2013-06-06 12:12:00,
2013-06-06 07:22:00,53.0,51.0,-100.00,NE,45,2.0,7.0,91,0.00,,,-99.99,,2013-06-06 12:22:00,
2013-06-06 07:33:00,53.0,51.0,-100.00,NNE,30,4.0,9.0,91,0.00,,,-99.99,,2013-06-06 12:33:00,
2013-06-06 07:42:00,53.0,51.0,-100.00,NNE,30,4.0,9.0,91,0.00,,,-99.99,,2013-06-06 12:42:00,
2013-06-06 07:52:00,54.0,52.0,-100.00,NE,50,1.0,4.0,92,0.00,,,-99.99,,2013-06-06 12:52:00,
2013-06-06 08:03:00,54.0,52.0,-100.00,NE,50,1.0,4.0,92,0.00,,,-99.99,,2013-06-06 13:03:00,
2013-06-06 08:12:00,54.0,52.0,-100.00,North,355,4.0,6.0,92,0.00,,,-99.99,,2013-06-06 13:12:00,
2013-06-06 08:22:00,54.0,52.0,-100.00,NNE,20,2.0,6.0,92,0.00,,,-99.99,,2013-06-06 13:22:00,
2013-06-06 08:32:00,55.0,53.0,-100.00,North,0,4.0,6.0,92,0.00,,,-99.99,,2013-06-06 13:32:00,
2013-06-06 08:42:00,55.0,53.0,-100.00,North,0,4.0,6.0,92,0.00,,,-99.99,,2013-06-06 13:42:00,
2013-06-06 08:52:00,56.0,54.0,-100.00,North,0,4.0,6.0,92,0.00,,,-99.99,,2013-06-06 13:52:00,
2013-06-06 09:03:00,56.0,54.0,-100.00,North,0,4.0,6.0,92,0.00,,,-99.99,,2013-06-06 14:03:00,
2013-06-06 09:12:00,56.0,54.0,-100.00,North,0,2.0,7.0,91,0.00,,,-99.99,,2013-06-06 14:12:00,
2013-06-06 09:22:00,56.0,54.0,-100.00,North,10,4.0,9.0,91,0.00,,,-99.99,,2013-06-06 14:22:00,
2013-06-06 09:33:00,56.0,53.0,-100.00,North,350,7.0,12.0,89,0.00,,,-99.99,,2013-06-06 14:33:00,
2013-06-06 09:43:00,56.0,53.0,-100.00,North,350,7.0,12.0,89,0.00,,,-99.99,,2013-06-06 14:43:00,
2013-06-06 09:52:00,58.0,52.0,-100.00,North,5,4.0,7.0,82,0.00,,,-99.99,,2013-06-06 14:52:00,
2013-06-06 10:03:00,58.0,52.0,-100.00,North,5,4.0,7.0,82,0.00,,,-99.99,,2013-06-06 15:03:00,
2013-06-06 10:12:00,58.0,52.0,-100.00,NE,40,4.0,7.0,78,0.00,,,-99.99,,2013-06-06 15:12:00,
2013-06-06 10:23:00,59.0,51.0,-100.00,NE,45,4.0,9.0,74,0.00,,,-99.99,,2013-06-06 15:23:00,
2013-06-06 10:33:00,61.0,49.0,-100.00,NNW,335,6.0,9.0,66,0.00,,,-99.99,,2013-06-06 15:33:00,
2013-06-06 10:43:00,61.0,49.0,-100.00,NNW,335,6.0,9.0,66,0.00,,,-99.99,,2013-06-06 15:43:00,
2013-06-06 10:52:00,62.0,48.0,-100.00,NNE,25,4.0,10.0,59,0.00,,,-99.99,,2013-06-06 15:52:00,
2013-06-06 11:03:00,62.0,48.0,-100.00,NNE,25,4.0,10.0,59,0.00,,,-99.99,,2013-06-06 16:03:00,
2013-06-06 11:12:00,63.0,48.0,-100.00,North,0,4.0,9.0,57,0.00,,,-99.99,,2013-06-06 16:12:00,
2013-06-06 11:23:00,62.0,47.0,-100.00,NE,45,3.0,11.0,57,0.00,,,-99.99,,2013-06-06 16:23:00,
2013-06-06 11:33:00,61.0,47.0,-100.00,NNW,340,7.0,11.0,59,0.00,,,-99.99,,2013-06-06 16:33:00,
2013-06-06 11:43:00,61.0,47.0,-100.00,NNW,340,7.0,11.0,59,0.00,,,-99.99,,2013-06-06 16:43:00,
2013-06-06 11:52:00,61.0,47.0,-100.00,NNW,340,6.0,9.0,60,0.00,,,-99.99,,2013-06-06 16:52:00,
2013-06-06 12:03:00,61.0,47.0,-100.00,NNW,340,6.0,9.0,60,0.00,,,-99.99,,2013-06-06 17:03:00,
2013-06-06 12:13:00,61.0,47.0,-100.00,NNW,345,6.0,12.0,61,0.00,,,-99.99,,2013-06-06 17:13:00,
2013-06-06 12:22:00,61.0,47.0,-100.00,NNW,340,4.0,10.0,61,0.00,,,-99.99,,2013-06-06 17:22:00,
2013-06-06 12:33:00,60.0,47.0,-100.00,NNW,340,9.0,12.0,63,0.00,,,-99.99,,2013-06-06 17:33:00,
2013-06-06 12:42:00,60.0,47.0,-100.00,NNW,340,9.0,12.0,63,0.00,,,-99.99,,2013-06-06 17:42:00,
2013-06-06 12:52:00,61.0,48.0,-100.00,NNW,330,7.0,10.0,61,0.00,,,-99.99,,2013-06-06 17:52:00,
2013-06-06 13:03:00,61.0,48.0,-100.00,NNW,330,7.0,10.0,61,0.00,,,-99.99,,2013-06-06 18:03:00,
2013-06-06 13:13:00,62.0,49.0,-100.00,NNW,340,7.0,11.0,60,0.00,,,-99.99,,2013-06-06 18:13:00,
2013-06-06 13:23:00,61.0,48.0,-100.00,North,0,8.0,16.0,61,0.00,,,-99.99,,2013-06-06 18:23:00,
2013-06-06 13:33:00,61.0,48.0,-100.00,NNW,345,7.0,13.0,63,0.00,,,-99.99,,2013-06-06 18:33:00,
2013-06-06 13:43:00,61.0,48.0,-100.00,NNW,345,7.0,13.0,63,0.00,,,-99.99,,2013-06-06 18:43:00,
2013-06-06 13:53:00,62.0,48.0,-100.00,NNW,330,11.0,14.0,61,0.00,,,-99.99,,2013-06-06 18:53:00,
2013-06-06 14:03:00,62.0,48.0,-100.00,NNW,330,11.0,14.0,61,0.00,,,-99.99,,2013-06-06 19:03:00,
2013-06-06 14:12:00,63.0,49.0,-100.00,NNW,340,8.0,14.0,59,0.00,,,-99.99,,2013-06-06 19:12:00,
2013-06-06 14:23:00,62.0,47.0,-100.00,North,0,6.0,14.0,59,0.00,,,-99.99,,2013-06-06 19:23:00,
2013-06-06 14:33:00,62.0,48.0,-100.00,NNW,340,9.0,12.0,58,0.00,,,-99.99,,2013-06-06 19:33:00,
2013-06-06 14:42:00,62.0,48.0,-100.00,NNW,340,9.0,12.0,58,0.00,,,-99.99,,2013-06-06 19:42:00,
2013-06-06 14:52:00,63.0,48.0,-100.00,North,350,6.0,12.0,58,0.00,,,-99.99,,2013-06-06 19:52:00,
2013-06-06 15:03:00,63.0,48.0,-100.00,North,350,6.0,12.0,58,0.00,,,-99.99,,2013-06-06 20:03:00,
2013-06-06 15:13:00,62.0,47.0,-100.00,NNW,345,9.0,13.0,57,0.00,,,-99.99,,2013-06-06 20:13:00,
2013-06-06 15:22:00,62.0,47.0,-100.00,NNW,340,6.0,11.0,57,0.00,,,-99.99,,2013-06-06 20:22:00,
2013-06-06 15:33:00,61.0,46.0,-100.00,North,350,7.0,12.0,57,0.00,,,-99.99,,2013-06-06 20:33:00,
2013-06-06 15:42:00,61.0,46.0,-100.00,North,350,7.0,12.0,57,0.00,,,-99.99,,2013-06-06 20:42:00,
2013-06-06 15:52:00,62.0,47.0,-100.00,North,350,6.0,11.0,57,0.00,,,-99.99,,2013-06-06 20:52:00,
2013-06-06 16:03:00,62.0,47.0,-100.00,North,350,6.0,11.0,57,0.00,,,-99.99,,2013-06-06 21:03:00,
2013-06-06 16:12:00,62.0,46.0,-100.00,North,0,7.0,10.0,57,0.00,,,-99.99,,2013-06-06 21:12:00,
2013-06-06 16:22:00,62.0,46.0,-100.00,NNW,335,7.0,12.0,56,0.00,,,-99.99,,2013-06-06 21:22:00,
2013-06-06 16:33:00,62.0,46.0,-100.00,North,0,7.0,11.0,55,0.00,,,-99.99,,2013-06-06 21:33:00,
2013-06-06 16:43:00,62.0,46.0,-100.00,North,0,7.0,11.0,55,0.00,,,-99.99,,2013-06-06 21:43:00,
2013-06-06 16:53:00,62.0,46.0,-100.00,North,355,6.0,11.0,55,0.00,,,-99.99,,2013-06-06 21:53:00,
2013-06-06 17:03:00,62.0,46.0,-100.00,North,355,6.0,11.0,55,0.00,,,-99.99,,2013-06-06 22:03:00,
2013-06-06 17:13:00,62.0,46.0,-100.00,North,0,7.0,14.0,55,0.00,,,-99.99,,2013-06-06 22:13:00,
2013-06-06 17:23:00,62.0,46.0,-100.00,North,0,7.0,14.0,55,0.00,,,-99.99,,2013-06-06 22:23:00,
2013-06-06 17:33:00,62.0,46.0,-100.00,NNW,330,8.0,15.0,55,0.00,,,-99.99,,2013-06-06 22:33:00,
2013-06-06 17:43:00,62.0,46.0,-100.00,NNW,330,8.0,15.0,55,0.00,,,-99.99,,2013-06-06 22:43:00,
2013-06-06 17:52:00,63.0,46.0,-100.00,NW,320,6.0,12.0,53,0.00,,,-99.99,,2013-06-06 22:52:00,
2013-06-06 18:02:00,63.0,46.0,-100.00,NW,320,6.0,12.0,53,0.00,,,-99.99,,2013-06-06 23:02:00,
2013-06-06 18:12:00,63.0,45.0,-100.00,NNW,330,8.0,14.0,52,0.00,,,-99.99,,2013-06-06 23:12:00,
2013-06-06 18:22:00,62.0,45.0,-100.00,NNW,330,7.0,12.0,52,0.00,,,-99.99,,2013-06-06 23:22:00,
2013-06-06 18:33:00,62.0,45.0,-100.00,NW,325,9.0,14.0,53,0.00,,,-99.99,,2013-06-06 23:33:00,
2013-06-06 18:42:00,62.0,45.0,-100.00,NW,325,9.0,14.0,53,0.00,,,-99.99,,2013-06-06 23:42:00,
2013-06-06 18:52:00,62.0,46.0,-100.00,NNW,335,8.0,15.0,54,0.00,,,-99.99,,2013-06-06 23:52:00,
2013-06-06 19:02:00,62.0,46.0,-100.00,NNW,335,8.0,15.0,54,0.00,,,-99.99,,2013-06-07 00:02:00,
2013-06-06 19:12:00,62.0,46.0,-100.00,NW,320,7.0,12.0,54,0.00,,,-99.99,,2013-06-07 00:12:00,
2013-06-06 19:22:00,62.0,46.0,-100.00,NNW,330,7.0,12.0,54,0.00,,,-99.99,,2013-06-07 00:22:00,
2013-06-06 19:32:00,61.0,45.0,-100.00,NNW,340,7.0,12.0,55,0.00,,,-99.99,,2013-06-07 00:32:00,
2013-06-06 19:42:00,61.0,45.0,-100.00,NNW,340,7.0,12.0,55,0.00,,,-99.99,,2013-06-07 00:42:00,
2013-06-06 19:52:00,61.0,45.0,-100.00,North,0,7.0,13.0,56,0.00,,,-99.99,,2013-06-07 00:52:00,
2013-06-06 20:02:00,61.0,45.0,-100.00,North,0,7.0,13.0,56,0.00,,,-99.99,,2013-06-07 01:02:00,
2013-06-06 20:12:00,61.0,45.0,-100.00,NNW,345,6.0,12.0,57,0.00,,,-99.99,,2013-06-07 01:12:00,
2013-06-06 20:22:00,60.0,45.0,-100.00,North,0,4.0,12.0,57,0.00,,,-99.99,,2013-06-07 01:22:00,
2013-06-06 20:32:00,61.0,46.0,-100.00,North,0,4.0,8.0,58,0.00,,,-99.99,,2013-06-07 01:32:00,
2013-06-06 20:42:00,61.0,46.0,-100.00,North,0,4.0,8.0,58,0.00,,,-99.99,,2013-06-07 01:42:00,
2013-06-06 20:52:00,59.0,45.0,-100.00,NE,35,1.0,7.0,60,0.00,,,-99.99,,2013-06-07 01:52:00,
2013-06-06 21:02:00,59.0,45.0,-100.00,NE,35,1.0,7.0,60,0.00,,,-99.99,,2013-06-07 02:02:00,
2013-06-06 21:12:00,58.0,45.0,-100.00,North,0,4.0,7.0,62,0.00,,,-99.99,,2013-06-07 02:12:00,
2013-06-06 21:22:00,58.0,45.0,-100.00,North,0,4.0,6.0,64,0.00,,,-99.99,,2013-06-07 02:22:00,
2013-06-06 21:32:00,56.0,46.0,-100.00,North,0,3.0,6.0,68,0.00,,,-99.99,,2013-06-07 02:32:00,
2013-06-06 21:42:00,56.0,46.0,-100.00,North,0,3.0,6.0,68,0.00,,,-99.99,,2013-06-07 02:42:00,
2013-06-06 21:52:00,55.0,47.0,-100.00,North,355,3.0,6.0,72,0.00,,,-99.99,,2013-06-07 02:52:00,
2013-06-06 22:02:00,55.0,47.0,-100.00,North,355,3.0,6.0,72,0.00,,,-99.99,,2013-06-07 03:02:00,
2013-06-06 22:12:00,55.0,47.0,-100.00,North,355,3.0,6.0,73,0.00,,,-99.99,,2013-06-07 03:12:00,
2013-06-06 22:22:00,55.0,47.0,-100.00,NNW,340,2.0,4.0,74,0.00,,,-99.99,,2013-06-07 03:22:00,
2013-06-06 22:33:00,55.0,48.0,-100.00,NNW,340,2.0,4.0,76,0.00,,,-99.99,,2013-06-07 03:33:00,
2013-06-06 22:43:00,55.0,48.0,-100.00,NNW,340,2.0,4.0,76,0.00,,,-99.99,,2013-06-07 03:43:00,
2013-06-06 22:53:00,56.0,49.0,-100.00,North,355,2.0,5.0,78,0.00,,,-99.99,,2013-06-07 03:53:00,
2013-06-06 23:03:00,56.0,49.0,-100.00,North,355,2.0,5.0,78,0.00,,,-99.99,,2013-06-07 04:03:00,
2013-06-06 23:12:00,56.0,50.0,-100.00,North,10,1.0,4.0,78,0.00,,,-99.99,,2013-06-07 04:12:00,
2013-06-06 23:23:00,56.0,50.0,-100.00,NNW,340,3.0,4.0,78,0.00,,,-99.99,,2013-06-07 04:23:00,
2013-06-06 23:33:00,56.0,49.0,-100.00,North,350,1.0,4.0,78,0.00,,,-99.99,,2013-06-07 04:33:00,
2013-06-06 23:42:00,56.0,49.0,-100.00,North,350,1.0,4.0,78,0.00,,,-99.99,,2013-06-07 04:42:00,
2013-06-06 23:53:00,55.0,49.0,-100.00,NE,45,2.0,4.0,79,0.00,,,-99.99,,2013-06-07 04:53:00,